Preview of NWS' New Version of Forecast
This preview is not operational and should not be used for support decisions.
Latest weather observations around

Montgomery, Dannelly Field (KMGM)

Using International System of Units (Switch to English Units)
Date/ Time (CST) Wind (kph) Vis. (km) Weather Sky Cond. Temp (°C) Rel. Humidity Wind Chill (°C) Heat Index (°C) Pressure Precip. (cm)
Air Dwpt 6 hour Altimeter (hPa) Sea level (hPa) 1 hr 3 hr 6 hr
Max Min
Jan 24 01:53 W 18 16.09 Cloudy OVC026 8 6     89% 5   1011.2 1011.1 0    
Jan 24 01:34 WNW 22 16.09 Cloudy FEW008 SCT019 OVC025 8 7     93% 4   1010.8   0    
Jan 24 00:53 W 30 6.44 Fog/Mist OVC005 9 8     96% 5   1010.5 1010.1 0    
Jan 24 00:07 W 28 6.44 Rain and Fog/Mist OVC005 11 10     93%     1010.5   0    
Jan 23 23:53 SW 15 16.09 Cloudy BKN003 BKN028 OVC034 13 12     96%     1009.5 1009.4 0   2
Jan 23 23:47 WSW 11 16.09 Light Rain BKN004 BKN028 OVC034 13 12     94%     1009.2   0    
Jan 23 22:53 SSW 11 16.09 Mostly Cloudy FEW002 SCT090 BKN110 13 12     96%     1009.8 1009.4      
Jan 23 22:36 WSW 13 16.09 Mostly Cloudy FEW002 BKN070 13 12     96%     1008.8        
Jan 23 21:53 SSE 8 16.09 Cloudy SCT070 OVC100 13 12     96%     1007.8 1007.7 0    
Jan 23 20:53 S 8 16.09 Light Rain FEW040 OVC049 13 13     97%     1009.5 1009.3 0 2  
Jan 23 19:53 WSW 5 12.87 Cloudy SCT041 BKN050 OVC060 13 12     93%     1009.5 1009.3 1    
Jan 23 19:27 NNW 5 12.87 Rain BKN047 BKN070 OVC090 13 13     97%     1009.2   0    
Jan 23 19:24 5 6.44 Rain and Fog/Mist BKN044 BKN055 OVC070 13 12     93%     1009.5   0    
Jan 23 19:04 WNW 8 4.02 Heavy Rain and Fog/Mist BKN049 OVC070 13 13     97%     1009.5   0    
Jan 23 18:53 NNW 13 6.44 Heavy Rain and Fog/Mist FEW010 BKN048 OVC075 13 13     97%     1009.5 1009.2 1    
Jan 23 18:40 NW 15 4.83 Heavy Rain and Fog/Mist FEW008 FEW012 OVC046 13 13     97%     1009.5   1    
Jan 23 18:23 WNW 15 4.83 Heavy Rain and Fog/Mist FEW019 OVC042 14 13     93%     1009.8   1    
Jan 23 18:15 WNW 17 4.02 Heavy Rain and Fog/Mist FEW019 OVC040 14 13     93%     1009.8   1    
Jan 23 18:02 WNW 24 3.22 Heavy Rain and Fog/Mist FEW012 OVC018 14 13     93%     1009.8   0    
Jan 23 17:53 WNW 21 4.83 Heavy Rain and Fog/Mist SCT012 OVC018 14 13     96%     1009.5 1009.4 1   3
Jan 23 17:43 WNW 24 8.05 Heavy Rain and Fog/Mist BKN012 OVC030 14 13     93%     1008.8   1    
Jan 23 17:24 NW 26 6.44 Heavy Rain and Fog/Mist SCT011 OVC041 14 13     93%     1008.5   1    
Jan 23 17:04   4.83 Rain and Fog/Mist FEW007 SCT012 OVC017 16 15     93%     1008.5   0    
Jan 23 17:02 NW 37 3.22 Heavy Rain and Fog/Mist BKN010 OVC016 16 15     93%     1008.1   0    
Jan 23 16:58   1.61 Heavy Rain and Fog/Mist FEW007 OVC010 17 16     93%     1007.8   0    
Jan 23 16:56   1.21 Heavy Rain and Fog/Mist BKN010 OVC016 17 16     93%     1007.8   0    
Jan 23 16:53 W 28 0.8 Heavy Rain and Fog BKN008 BKN013 OVC018 17 16     93%     1008.1 1007.9 1    
Jan 23 16:49 W 33 0.8 Heavy Rain and Fog BKN008 OVC015 18 17     94%     1007.8   1    
Jan 23 16:47   2.41 Heavy Rain and Fog FEW008 BKN012 OVC018 18 17     94%     1007.8   1    
Jan 23 16:45 W 30 4.83 Light Rain and Fog/Mist FEW008 BKN014 OVC021 18 17     93%     1007.8   1    
Jan 23 16:42 WSW 28 8.05 Rain and Fog/Mist FEW008 BKN014 OVC025 18 17     93%     1007.1   1    
Jan 23 16:10 S 24 4.83 Heavy Rain and Fog/Mist BKN011 BKN017 OVC023 18 17     93%     1006.8   0    
Jan 23 15:53 SSE 21 4.83 Rain and Fog/Mist SCT015 BKN022 OVC028 18 17     93%     1006.4 1006.2 0    
Jan 23 15:51 SSE 22 4.83 Rain and Fog/Mist FEW013 BKN019 OVC026 18 17     94%     1006.4   0    
Jan 23 15:46 SSE 26 2.82 Rain and Fog/Mist SCT015 OVC022 18 17     93%     1006.8   0    
Jan 23 15:29 SSE 28 8.05 Light Rain and Fog/Mist BKN022 OVC033 19 17     87%     1007.1   0    
Jan 23 14:53 SSE 30 6.44 Light Rain and Fog/Mist BKN031 BKN070 OVC100 19 17     87%     1007.5 1007.3 0 0  
Jan 23 14:51 SSE 33 6.44 Light Rain and Fog/Mist BKN029 BKN070 OVC100 18 17     94%     1007.8   0    
Jan 23 14:44 SE 33 2.82 Rain and Fog/Mist BKN029 BKN070 OVC110 19 17     87%     1007.5   0    
Jan 23 14:25 SSE 26 16.09 Cloudy BKN029 OVC034 19 16     84%     1008.5   0    
Jan 23 13:56 SSE 26 4.83 Light Rain BKN030 OVC036 19 16     84%     1009.2   0    
Jan 23 13:53 SSE 32 2.82 Rain and Fog/Mist BKN029 OVC036 18 16     87%     1009.2 1009 0    
Jan 23 13:46 SSE 35 2.01 Heavy Rain OVC029 19 16     81%     1009.5   0    
Jan 23 13:42 SE 32 3.22 Heavy Rain OVC029 19 16     81%     1009.5   0    
Jan 23 12:53 SE 33 16.09 Cloudy and Windy OVC033 21 14     65%     1010.8 1010.6      
Jan 23 11:53 SE 26 16.09 Mostly Cloudy SCT034 BKN075 BKN090 19 14     73%     1013.2 1013.1 0   0
Jan 23 11:24 SE 24 16.09 Light Rain SCT022 BKN050 OVC065 18 14     81%     1014.6   0    
Jan 23 10:53 SSE 33 16.09 Cloudy and Windy BKN027 BKN049 OVC065 19 13     68%     1015.2 1015.1      
Jan 23 09:53 SSE 32 16.09 Cloudy and Windy BKN026 BKN070 OVC100 19 13     66%     1015.9 1015.8      
Jan 23 08:53   16.09 Mostly Cloudy BKN028 BKN110 19 12     65%     1016.6 1016.3      
Jan 23 07:53 SSE 26 16.09 Mostly Cloudy SCT085 BKN110 17 12     72%     1017.6 1017.5      
Jan 23 06:53 SE 24 16.09 Clear CLR 16 11     75%     1018.3 1018.2      
Jan 23 05:53 SE 33 16.09 Cloudy and Windy SCT060 OVC100 16 11     72%     1019 1018.8      
Jan 23 04:53 SE 17 16.09 Mostly Cloudy BKN100 15 11     75%     1019 1018.8      
Jan 23 03:53 ESE 21 16.09 Cloudy OVC095 14 11     78%     1019.7 1019.6      
Jan 23 02:53 ESE 21 16.09 Mostly Cloudy BKN100 14 10     77%     1020.7 1020.7      
Jan 23 01:53 ESE 18 16.09 Cloudy OVC095 13 9     77%     1021.7 1021.7      
Jan 23 00:53 ESE 17 16.09 Cloudy SCT065 OVC090 13 9     75%     1022.7 1022.5      
Jan 22 23:53 E 21 16.09 Cloudy OVC090 13 8     72%     1023.4 1023.3      
Jan 22 22:53 E 21 16.09 Cloudy OVC090 13 7     69%     1024.1 1023.9      
Jan 22 21:53 E 17 16.09 Cloudy OVC085 12 7     69%     1024.7 1024.5      
Jan 22 20:53 E 17 16.09 Cloudy OVC070 12 6     66%     1025.4 1025.5      
Jan 22 19:53 ENE 18 16.09 Cloudy BKN041 BKN047 OVC070 12 5     63%     1026.1 1026      
Jan 22 18:53 E 17 16.09 Cloudy OVC065 12 5     63%     1025.7 1025.9      
Jan 22 17:53 E 18 16.09 Cloudy OVC065 11 4     63%     1026.1 1026      
Jan 22 16:53 E 18 16.09 Cloudy OVC060 12 4     61%     1025.7 1025.7      
Jan 22 15:53 E 21 16.09 Cloudy FEW035 OVC060 12 4     59%     1026.1 1026.2      
Jan 22 14:53 E 28 16.09 Cloudy SCT035 OVC060 13 4     57%     1026.8 1026.6      
Jan 22 13:53 E 21 16.09 Cloudy OVC060 13 3     52%     1026.8 1026.8      
Jan 22 12:53 E 24 16.09 Cloudy OVC055 12 3     53%     1028.1 1028.1      
Jan 22 11:53 E 22 16.09 Cloudy OVC050 11 1     52%     1029.5 1029.5      
Jan 22 10:53 ESE 28 16.09 Clear CLR 9 -1     50% 6   1030.5 1030.5      
Jan 22 09:53 E 28 16.09 Mostly Clear FEW031 7 -2     53% 3   1031.2 1031.2      
Jan 22 08:53 E 28 16.09 Mostly Clear FEW021 5 -3     57% 0   1031.8 1031.7      
Jan 22 08:50 E 24 16.09 Partly Cloudy SCT021 5 -3     56% 1   1031.8        
Jan 22 07:53 E 17 16.09 Mostly Cloudy BKN021 3 -2     70% -1   1031.8 1032      
Jan 22 06:53 E 11 16.09 Clear CLR 1 -3     75% -3   1031.5 1031.5      
Jan 22 05:53 E 13 16.09 Clear CLR 1 -3     75% -3   1030.1 1030.3      
Jan 22 04:53 E 13 16.09 Clear CLR 1 -3     75% -3   1029.8 1029.7      
Jan 22 03:53 E 15 16.09 Clear CLR 1 -3     72% -3   1029.1 1029.1      
Jan 22 02:53 E 13 16.09 Clear CLR 1 -3     72% -3   1029.5 1029.5      
Jan 22 01:53 E 13 16.09 Clear CLR 1 -3     75% -3   1029.1 1029.1      
Jan 22 00:53 E 13 16.09 Clear CLR 1 -3     75% -3   1028.8 1028.9      
Jan 21 23:53 E 13 16.09 Clear CLR 1 -3     72% -3   1028.8 1028.9      
Jan 21 22:53 E 13 16.09 Clear CLR 1 -3     72% -3   1029.1 1029.1      
Jan 21 21:53 E 9 16.09 Clear CLR 1 -3     75% -2   1028.8 1028.8      
Jan 21 20:53 E 5 16.09 Clear CLR 3 -4     61% 1   1028.8 1028.7      
Jan 21 19:53 Calm 16.09 Clear CLR 3 -2     72%     1028.5 1028.6      
Jan 21 18:53 Calm 16.09 Clear CLR 4 -4     55%     1028.5 1028.5      
Jan 21 17:53 Calm 16.09 Clear CLR 4 -3     60%     1028.5 1028.7      
Jan 21 16:53 N 5 16.09 Clear CLR 8 -4     42% 7   1028.8 1028.7      
Jan 21 15:53 N 9 16.09 Clear CLR 9 -5     36% 8   1028.8 1028.7      
Jan 21 14:53 N 9 16.09 Clear CLR 9 -5     36% 8   1029.1 1029      
Jan 21 13:53 8 16.09 Clear CLR 8 -6     37% 7   1029.5 1029.3      
Jan 21 12:53 N 11 16.09 Clear CLR 7 -6     40% 5   1029.8 1029.9      
Jan 21 11:53 WNW 9 16.09 Clear CLR 6 -6     44% 4   1031.2 1031.1      
Jan 21 10:53 N 9 16.09 Clear CLR 4 -6     48% 2   1031.5 1031.5      
Jan 21 09:53 NE 15 16.09 Clear CLR 3 -6     52% -1   1031.5 1031.7      
Jan 21 08:53 N 15 16.09 Clear CLR 1 -5     64% -3   1031.2 1031.2      
Jan 21 07:53 N 13 16.09 Clear CLR -1 -5     72% -5   1030.5 1030.7      
Jan 21 06:53 NNW 8 16.09 Clear CLR -2 -6     78% -5   1029.5 1029.6      
Jan 21 05:53 NNW 8 16.09 Clear CLR -3 -6     81% -6   1028.1 1028.3      
Jan 21 04:53 WNW 5 16.09 Clear CLR -3 -5     85% -5   1027.4 1027.7      
Jan 21 03:53 NW 5 16.09 Clear CLR -2 -5     81% -4   1026.8 1027      
Jan 21 02:53 NW 5 16.09 Clear CLR -2 -5     78% -4   1027.1 1027      
May 15 10:53 E 13 16.09 Cloudy BKN033 OVC041 28 19     59%   30 1015.6 1015.1      
May 14 19:53 SE 11 16.09 Clear CLR 26 20     69%   27 1013.6 1013.3      
May 14 17:53 NE 8 16.09 Clear CLR 32 17     42%   32 1013.2 1012.8      
May 14 12:53 N 11 16.09 Mostly Clear FEW070 34 16     33%   34 1015.9 1015.4      
May 14 11:53 N 8 16.09 Clear CLR 34 18     38%   35 1016.3 1015.9      
May 13 00:53 Calm 16.09 Clear CLR 19 17     87%     1018.3 1018      
May 12 15:53 SW 11 16.09 Clear CLR 33 12     28%   31 1018.6 1018.3      
May 11 16:53 Calm 16.09 Mostly Clear FEW080 32 13     32%   31 1017.6 1017.2      
May 11 11:53 5 16.09 Clear CLR 30 15     40%   30 1020.7 1020.3      
Jun 12 08:37 ESE 13 16.09 Mostly Clear FEW015 27 21     69%   29 1021.3        
Jun 11 20:53 ESE 8 16.09 Clear CLR 26 22     77%   28 1019.3 1019.1      
Jun 11 16:53 SSE 15 16.09 Clear CLR 29 20     59%   31 1018.3 1018      
Jun 11 10:53 SE 11 16.09 Mostly Clear FEW028 30 20     55%   32 1020.7 1020.3      
Jun 11 10:10 ESE 11 16.09 Partly Cloudy SCT023 29 21     61%   32 1021        
Jun 11 09:53 SE 13 16.09 Mostly Cloudy BKN023 29 21     63%   31 1021 1020.6      
Jun 09 16:53 S 8 16.09 Clear CLR 31 13     35%   30 1013.2 1012.7      
Jun 09 15:53 8 16.09 Mostly Clear FEW060 30 13     36%   29 1013.6 1013.1      
Jun 08 06:53 Calm 16.09 Clear CLR 19 14     73%     1012.2 1012      
Jun 07 10:53 NNE 17 16.09 Clear CLR 27 19     62%   28 1008.1 1007.7      
Jun 06 13:58 N 15 3.22 Heavy Rain FEW027 BKN034 OVC060 24 21     84%   25 1006.8   0    
Jun 06 13:43 N 17 2.01 Heavy Rain FEW006 BKN022 OVC040 23 21     85%   24 1007.1   1    
Jun 06 12:53 SE 18 16.09 Mostly Cloudy FEW021 SCT033 BKN042 27 21     71%   28 1007.5 1007      
Jun 06 09:53 NE 15 16.09 Mostly Cloudy BKN007 26 22     77%   28 1007.8 1007.4      
Jun 06 07:53 Calm 16.09 Mostly Clear FEW004 23 21     85%   24 1008.5 1008.2      
Notice The following observation data may not be complete
Jun 05 21:03   9.66 Rain FEW006 BKN023 OVC110          %         0    
Jun 05 19:28 N 5 16.09 Mostly Cloudy SCT027 BKN065 24 20     79%   24 1008.8